Location: Nag� el Ma?a??a
(24.0667°N, 32.8833°E)
Time: 17:05:23
(UTC+00:00)

Cosmos 2297 - Pass Details

Date: 25 September 2021
Orbit: 834 x 860 km, 71.0° (Epoch: 16 October)

Event Time Altitude Azimuth Distance (km) Brightness Sun altitude
Rises 03:08:00 0° 330° (NNW) 3,433 6.6 -7.7°
Reaches altitude 10° 03:10:37 10° 322° (NW) 2,493 5.8 -7.1°
Maximum altitude 03:15:50 37° 257° (WSW) 1,303 4.2 -5.9°
Drops below altitude 10° 03:21:01 10° 191° (S) 2,474 6.0 -4.8°
Sets 03:23:37 0° 183° (S) 3,404 6.8 -4.2°
